Tracking 25612 objects as of 19-May-2022
HD Live streaming from Space Station
objects crossing your sky now

FACSAT 1

Track FACSAT 1 now!
10-day predictions


NORAD ID: 43721
Int'l Code: 2018-096C
Perigee: 457.2 km
Apogee: 478.6 km
Inclination: 97.4 °
Period: 93.8 minutes
Semi major axis: 6838 km
RCS: Unknown
Launch date: November 29, 2018
Source: (TBD)
Launch site: SRIHARIKOTA (SRI)
aabbcc
Your satellite tracking list
Your tracking list is empty




NASA's NSSDC Master Catalog

Two Line Element Set (TLE):
1 43721U 18096C   22138.80625263  .00026895  00000-0  78822-3 0  9999
2 43721  97.3513 218.6777 0015697 156.3692 350.8144 15.35053141193427
Source of the keplerian elements: AFSPC